Austin, TX

1:01 AM CST on February 09, 2016 (GMT -0600)
Austin

Weather History for KATT - August, 2013

Change the Weather History Date:

Sunday, August 11, 2013

  Actual Average Record
Temperature  
Mean Temperature 89 °F 86 °F  
Max Temperature 101 °F 98 °F 105 °F (1988)
Min Temperature 77 °F 75 °F 67 °F (1989)
Degree Days  
Heating Degree Days 0 0  
Month to date heating degree days 0 0  
Since 1 June heating degree days 0 0  
Since 1 July heating degree days 0 0  
Cooling Degree Days 24 21  
Month to date cooling degree days 282 231  
Year to date cooling degree days 2167 1980  
Since 1 June cooling degree days 1543 1367  
Growing Degree Days 38 (Base 50)    
Moisture  
Dew Point 69 °F    
Average Humidity 57    
Maximum Humidity 82    
Minimum Humidity 31    
Precipitation  
Precipitation 0.00 in 0.06 in 2.76 in (1966)
Month to date precipitation 0.00 0.66  
Year to date precipitation 17.51 20.40  
Snow  
Snow 0.00 in - - ()
Month to date snowfall 0.0  
Since 1 June snowfall 0.0  
Since 1 July snowfall 0.0  
Snow Depth 0.00 in    
Sea Level Pressure  
Sea Level Pressure 30.00 in    
Wind  
Wind Speed 3 mph (SSE)    
Max Wind Speed 15 mph    
Max Gust Speed 25 mph    
Visibility 10 miles    
Events      
T = Trace of Precipitation, MM = Missing Value Source: NWS Daily Summary

Daily Weather History Graph

Daily Weather History Graph

Search for Another Location

Airport or City:

Trip Planner

Search our weather history database for the weather conditions in past years. The results will help you decide how hot, cold, wet, or windy it might be!

Date:

Astronomy

Aug. 11, 2013 Rise Set
Actual Time 6:55 AM CDT 8:16 PM CDT
Civil Twilight 6:30 AM CDT 8:41 PM CDT
Nautical Twilight 5:59 AM CDT 9:11 PM CDT
Astronomical Twilight 5:28 AM CDT 9:43 PM CDT
Moon 11:19 AM CDT (8/11) 10:59 PM CDT (8/11)
Length of Visible Light 14h 11m
Length of Day
13h 20m
Waxing Crescent, 22% of the Moon is Illuminated
Aug 11
Waxing Crescent
Aug 14
First Quarter
Aug 20
Full
Aug 28
Last Quarter
Sep 5
New

Hourly Weather History & Observations

Time (CDT) Temp. Heat Index Dew Point Humidity Pressure Visibility Wind Dir Wind Speed Gust Speed Precip Events Conditions
12:51 AM 84.0 °F 89.0 °F 71.1 °F 65% 30.00 in 10.0 mi SSE 3.5 mph - N/A   Clear
1:51 AM 82.0 °F 85.9 °F 70.0 °F 67% 30.00 in 10.0 mi ESE 4.6 mph - N/A   Clear
2:51 AM 81.0 °F 84.4 °F 70.0 °F 69% 29.99 in 10.0 mi Calm Calm - N/A   Clear
3:51 AM 80.1 °F 83.2 °F 70.0 °F 71% 29.99 in 10.0 mi Calm Calm - N/A   Scattered Clouds
4:51 AM 79.0 °F - 70.0 °F 74% 30.00 in 10.0 mi Calm Calm - N/A   Clear
5:51 AM 79.0 °F - 71.1 °F 77% 30.00 in 10.0 mi Calm Calm - N/A   Clear
6:51 AM 77.0 °F - 71.1 °F 82% 30.02 in 10.0 mi Calm Calm - N/A   Clear
7:51 AM 79.0 °F - 71.1 °F 77% 30.04 in 10.0 mi Calm Calm - N/A   Clear
8:51 AM 82.9 °F 88.0 °F 72.0 °F 69% 30.05 in 10.0 mi Variable 3.5 mph - N/A   Clear
9:51 AM 86.0 °F 92.2 °F 72.0 °F 63% 30.06 in 10.0 mi Variable 3.5 mph - N/A   Partly Cloudy
10:51 AM 87.1 °F 92.0 °F 70.0 °F 57% 30.05 in 10.0 mi South 3.5 mph - N/A   Clear
11:51 AM 91.9 °F 96.9 °F 69.1 °F 47% 30.04 in 10.0 mi Variable 3.5 mph - N/A   Clear
12:51 PM 93.9 °F 98.6 °F 68.0 °F 43% 30.01 in 10.0 mi Calm Calm - N/A   Mostly Cloudy
1:51 PM 97.0 °F 100.4 °F 66.0 °F 36% 30.00 in 10.0 mi North - - N/A   Clear
2:51 PM 97.0 °F 99.9 °F 64.9 °F 35% 29.98 in 10.0 mi Calm Calm - N/A   Scattered Clouds
3:51 PM 100.9 °F 104.0 °F 64.0 °F 30% 29.94 in 10.0 mi SSE 6.9 mph - N/A   Partly Cloudy
4:51 PM 98.1 °F 100.7 °F 64.0 °F 33% 29.93 in 10.0 mi Calm Calm - N/A   Clear
5:51 PM 97.0 °F 98.3 °F 63.0 °F 32% 29.93 in 10.0 mi ESE 10.4 mph - N/A   Mostly Cloudy
6:51 PM 88.0 °F 92.9 °F 70.0 °F 55% 29.95 in 10.0 mi SSE 9.2 mph 17.3 mph N/A   Clear
7:51 PM 87.1 °F 91.3 °F 69.1 °F 55% 29.98 in 10.0 mi Variable 6.9 mph - N/A   Partly Cloudy
8:51 PM 84.9 °F 89.4 °F 70.0 °F 61% 29.99 in 10.0 mi South 3.5 mph - N/A   Clear
9:51 PM 84.9 °F 88.2 °F 68.0 °F 57% 29.99 in 10.0 mi SSE 6.9 mph - N/A   Clear
10:51 PM 82.9 °F 87.0 °F 70.0 °F 65% 30.00 in 10.0 mi Variable 4.6 mph - N/A   Clear
11:51 PM 82.0 °F 86.3 °F 71.1 °F 69% 30.01 in 10.0 mi South 5.8 mph - N/A   Clear